Regional Weather Roundup
Issued by NWS

Home | Current Version | Previous Version | Text Only | Print | Product List | Glossary On
Versions: 1 2 3 4 5 6 7 8 9 10 11 12 13 14 15 16 17 18 19 20 21 22 23 24 25 26 27 28
000
ASUS42 KKEY 281210
RWRKEY

FLORIDA REGIONAL WEATHER ROUNDUP FOR THE FLORIDA KEYS
NATIONAL WEATHER SERVICE KEY WEST FLORIDA
800 AM EDT SUN AUG 28 2016

...SOUTH FLORIDA AND THE KEYS...

CITY           SKY/WX    TMP DP  RH WIND       PRES   REMARKS
FORT MYERS     SUNNY     78  77  96 NE7       29.93R
SW REGIONAL AP SUNNY     79  76  90 NE8       29.93R
NAPLES         SUNNY     79  77  94 NE7       29.91R
MIAMI          PTSUNNY   83  76  79 E22       29.91R HX  91
WEST KENDALL   MOSUNNY   81  78  91 E14       29.90R
HOMESTEAD      SUNNY     83  74  76 E15G22    29.89R
MARATHON       LGT RAIN  84  78  82 E13       29.85R HX  95
BOCA CHICA NAS PTSUNNY   81  73  78 NE9       29.87R
KEY WEST INTL  MOSUNNY   81  79  94 NE8       29.87R HX  90

...INTERNATIONAL WEATHER...

CITY           SKY/WX    TMP DP  RH WIND       PRES   REMARKS
NASSAU BAHAMAS NOT AVBL
CANCUN MEXICO  MOCLDY    73  73 100 W3        29.89R
COZUMEL MEXICO PTCLDY    75  75 100 CALM      29.88R

ADJACENT COASTAL WATERS...

STATION/POSITION TIME  SKY/WX   TEMP    WIND        PRES    WAVE
                                AIR SEA DIR/SP/G            HT/PER
                 (UTC)          (F)     (DEG/KT/KT) (MB)    (FT/S)
PULASKI SHOAL LI 1200            85      60/ 17/ 18 1012.0R
SAND KEY         1150            83      60/ 15/ 17 1011.9R
LONG KEY         1100            84 86   70/ 17/ 20 1010.6S
FOWEY ROCKS      1200            83 85  100/ 23/ 27 1013.0R

$$




USA.gov is the U.S. government's official web portal to all federal, state and local government web resources and services.